AJ5TT Weather Reports


time (UTC)temp
C
wind
direction
speed
KPH
gust
KPH
rain 1hr
cm
rain 24hr
cm
rain mn
cm
humidity
%
barometer
mb
20260510064607 23 202 1.6 4.8 0.00 0.00 0.00 90 1011.7
20260510063055 23 159 1.6 8.0 0.00 0.00 0.00 90 1011.9
20260510061554 23 112 3.2 11.3 0.00 0.00 0.00 89 1012.1
20260510060053 23 107 0.0 6.4 0.00 0.00 0.00 89 1012.0
20260510054551 23 202 1.6 4.8 0.00 0.00 0.00 89 1012.0
20260510053053 24 0 1.6 8.0 0.00 0.00 0.00 89 1012.2
20260510051606 24 146 1.6 3.2 0.00 0.00 0.00 89 1012.2
20260510050057 24 303 1.6 6.4 0.00 0.00 0.00 89 1012.4
20260510044604 24 201 1.6 4.8 0.00 0.00 0.00 89 1012.5
20260510043053 25 66 0.0 4.8 0.00 0.00 0.00 89 1012.5
20260510041606 25 49 1.6 6.4 0.00 0.00 0.00 88 1012.9
20260510040058 25 84 1.6 4.8 0.00 0.00 0.00 88 1012.7
20260510034600 25 82 1.6 3.2 0.00 0.00 0.00 88 1012.4
20260510033051 25 163 3.2 11.3 0.00 0.00 0.00 88 1012.6
20260510031603 25 24 1.6 14.5 0.00 0.00 0.00 87 1012.8
20260510030103 25 53 3.2 16.1 0.00 0.00 0.00 87 1012.5
20260510024555 25 35 1.6 9.7 0.00 0.00 0.00 86 1012.2
20260510023053 26 19 1.6 6.4 0.00 0.00 0.00 82 1011.9
20260510021557 25 9 1.6 9.7 0.00 0.00 0.00 81 1011.8
20260510020056 25 183 0.0 4.8 0.00 0.00 0.00 82 1011.2
20260510014551 26 131 1.6 4.8 0.00 0.00 0.00 81 1010.7
20260510013058 26 175 1.6 3.2 0.00 0.00 0.00 80 1010.4
20260510011554 26 335 1.6 3.2 0.00 0.00 0.00 79 1010.0
20260510010056 27 161 1.6 9.7 0.00 0.00 0.00 76 1009.3
20260510004556 27 146 1.6 8.0 0.00 0.00 0.00 72 1009.7
20260510003057 28 194 3.2 6.4 0.00 0.00 0.00 65 1009.6
20260510001554 29 135 3.2 14.5 0.00 0.00 0.00 57 1009.6
20260510000106 30 105 3.2 9.7 0.00 0.00 0.00 54 1009.2
20260509234604 31 257 1.6 9.7 0.00 0.00 0.00 53 1009.1
20260509233057 31 175 4.8 11.3 0.00 0.00 0.00 51 1008.9
20260509231610 32 168 4.8 9.7 0.00 0.00 0.00 52 1009.0
20260509230106 32 205 3.2 11.3 0.00 0.00 0.00 52 1008.7
20260509224556 33 238 1.6 4.8 0.00 0.00 0.00 51 1008.7
20260509223052 32 144 1.6 8.0 0.00 0.00 0.00 50 1008.7
20260509221557 32 271 4.8 9.7 0.00 0.00 0.00 52 1008.5
20260509220056 32 45 1.6 6.4 0.00 0.00 0.00 54 1008.5
20260509214554 32 193 3.2 6.4 0.00 0.00 0.00 57 1008.5
20260509213054 32 265 1.6 4.8 0.00 0.00 0.00 58 1008.5
20260509211601 31 5 1.6 6.4 0.00 0.00 0.00 60 1008.5
20260509210107 31 266 4.8 8.0 0.00 0.00 0.00 57 1008.6
20260509204557 32 104 1.6 9.7 0.00 0.00 0.00 58 1008.8
20260509203053 31 230 1.6 8.0 0.00 0.00 0.00 60 1008.9
20260509201600 31 217 3.2 8.0 0.00 0.00 0.00 61 1009.1
20260509200103 31 242 4.8 9.7 0.00 0.00 0.00 63 1009.2
20260509194556 30 223 4.8 9.7 0.00 0.00 0.00 60 1009.2
20260509193056 30 136 1.6 8.0 0.00 0.00 0.00 61 1009.5
20260509191557 31 5 3.2 6.4 0.00 0.00 0.00 65 1009.6
20260509190108 30 202 1.6 6.4 0.00 0.00 0.00 64 1009.5
20260509184605 29 269 0.0 4.8 0.00 0.00 0.00 69 1009.8
20260509183057 29 346 3.2 8.0 0.00 0.00 0.00 71 1010.2
20260509181607 28 37 3.2 9.7 0.00 0.00 0.00 71 1010.4
20260509180105 28 346 0.0 8.0 0.00 0.00 0.00 75 1010.7
20260509174556 28 43 3.2 4.8 0.00 0.00 0.00 76 1011.2
20260509173100 27 284 1.6 9.7 0.00 0.00 0.00 78 1011.2
20260509171553 27 233 1.6 8.0 0.00 0.00 0.00 80 1011.4
20260509164555 27 194 3.2 14.5 0.00 0.00 0.00 82 1011.4
20260509163104 27 224 1.6 6.4 0.00 0.00 0.00 84 1011.5
20260509161556 27 237 3.2 6.4 0.00 0.00 0.00 84 1011.4
20260509160052 27 238 0.0 6.4 0.00 0.00 0.00 85 1011.1
20260509154606 26 224 1.6 8.0 0.00 0.00 0.00 86 1011.1
20260509153055 26 207 1.6 8.0 0.00 0.00 0.00 88 1010.9
20260509151556 25 195 1.6 6.4 0.00 0.00 0.00 90 1011.1
20260509150108 25 0 0.0 4.8 0.00 0.00 0.00 91 1010.7
20260509144602 25 223 0.0 3.2 0.00 0.00 0.00 93 1011.0
20260509143102 24 161 1.6 8.0 0.00 0.00 0.00 94 1011.1
20260509141554 24 246 0.0 4.8 0.00 0.00 0.00 94 1011.4
20260509140059 24 214 1.6 8.0 0.00 0.00 0.00 95 1011.0
20260509134556 23 252 1.6 3.2 0.00 0.00 0.00 96 1010.9
20260509133100 23 221 0.0 3.2 0.00 0.00 0.00 96 1010.9
20260509131555 23 252 1.6 4.8 0.00 0.00 0.00 96 1011.2
20260509130056 23 211 1.6 3.2 0.00 0.00 0.00 96 1011.1
20260509124602 23 0 0.0 4.8 0.00 0.00 0.00 96 1011.1
20260509123103 23 194 0.0 3.2 0.00 0.00 0.00 96 1011.2
20260509121600 23 0 0.0 3.2 0.00 0.00 0.00 96 1011.1
20260509120054 23 0 0.0 3.2 0.00 0.00 0.00 95 1011.2
20260509114603 23 45 0.0 3.2 0.00 0.00 0.00 95 1011.2
20260509113107 23 22 0.0 3.2 0.00 0.00 0.00 95 1011.1
20260509111551 23 0 0.0 3.2 0.00 0.00 0.00 95 1011.0
20260509110054 23 0 0.0 3.2 0.00 0.00 0.00 95 1010.8
20260509104553 23 0 0.0 3.2 0.00 0.00 0.00 95 1010.5
20260509103052 23 0 0.0 0.0 0.00 0.00 0.00 95 1010.5
20260509101555 23 22 0.0 3.2 0.00 0.00 0.00 95 1010.5
20260509100056 23 0 0.0 0.0 0.00 0.00 0.00 95 1010.6
20260509094554 23 0 0.0 1.6 0.00 0.00 0.00 95 1010.4
20260509093054 23 22 0.0 3.2 0.00 0.00 0.00 95 1010.3
20260509091600 23 0 0.0 3.2 0.00 0.00 0.00 95 1010.0
20260509090115 23 22 0.0 3.2 0.00 0.00 0.00 95 1010.0
20260509084552 23 23 0.0 3.2 0.00 0.00 0.00 95 1009.9
20260509083059 23 0 0.0 0.0 0.00 0.00 0.00 95 1010.0
20260509081600 22 0 0.0 0.0 0.00 0.00 0.00 95 1010.3
20260509080109 22 0 0.0 3.2 0.00 0.00 0.00 94 1010.2
20260509074555 22 0 0.0 0.0 0.00 0.00 0.00 95 1010.6
20260509073106 22 0 0.0 0.0 0.00 0.00 0.00 95 1010.7
20260509071556 22 0 0.0 0.0 0.00 0.00 0.00 94 1010.9